Torna al catalogo

USA 40 R/B DEB

AttivoUNKNOWN
NORAD 23370·DEBRIS·🇺🇸 United States

Lanciato Aug 8, 1989 da Cape Canaveral Space Force Station

Loading…

Prossimi Passaggi (prossime 24 ore)

TLE

AggiornatoSource: Space-Track

Epoca: Sep 14, 2026, 21:32 UTC

1 23370U 89061AS  26257.89757383  .00022226  00000-0  72523-2 0  9996
2 23370  57.0255 212.2166 2031810 115.8921 266.5053 10.90992123273569

Traccia USA 40 R/B DEB in tempo reale con AllMySat

Download on the App Store